Christian Reinauer — WDA6472 — position and weather

sailwx.info

Track history (hours):
 
Tides and Currents Weather Stations Pressure Air Temp Water Temp Dewpoint Dewpoint Depression Visibility Wind Speed Wind Dir Waves Ship Positions

Christian Reinauer

Owner: REINAUER TRANSPORTATION CO LLC, STATEN ISLAND, NY. More information available from US FCC via Universal Licensing System and Coast Guard Vessel Documentation Center.

Last reported at 2018-Jun-23 07:24 UTC. Time now 2018-Jun-23 09:47 UTC.
Position N 40°48' W 073°53'.

Length 172 m; draft 8.1 m.

Type: . MMSI: 366832740.

Date/timePositionNaut miles runAvg speedWind from/ knotsBaromVisibWave heightAir tempDewpointWater temp
2018-Jun-23 07:24N 40°48' W 073°53'4 9.9
2018-Jun-23 07:00N 40°46' W 073°57'511.0
2018-Jun-23 06:30N 40°41' W 074°01'4 8.7
2018-Jun-23 06:00N 40°39' W 074°06'4 8.6
2018-Jun-23 05:30N 40°38' W 074°12'6 0.3
2018-Jun-22 12:10N 40°33' W 074°15'2 6.9
2018-Jun-22 11:57N 40°34' W 074°13'4 7.1
2018-Jun-22 11:22N 40°38' W 074°12'3 7.0
2018-Jun-22 10:59N 40°39' W 074°09'3 6.7
2018-Jun-22 10:30N 40°39' W 074°05'2 4.0
2018-Jun-22 10:00N 40°40' W 074°02'0 0.0
2018-Jun-22 09:30N 40°40' W 074°02'0 0.0
2018-Jun-22 09:00N 40°40' W 074°02'0 0.0
2018-Jun-22 08:30N 40°40' W 074°02'0 0.0
2018-Jun-22 08:00N 40°40' W 074°02'0 0.0
2018-Jun-22 07:27N 40°40' W 074°02'0 0.0
2018-Jun-22 07:00N 40°40' W 074°02'0 0.1
2018-Jun-22 06:30N 40°40' W 074°02'0 0.1
2018-Jun-22 06:00N 40°40' W 074°02'0 0.2
2018-Jun-22 05:30N 40°40' W 074°03'0 0.2
2018-Jun-22 05:00N 40°40' W 074°02'0 0.1
2018-Jun-22 04:30N 40°40' W 074°02'0 0.0
2018-Jun-22 04:00N 40°40' W 074°02'0 0.0
2018-Jun-22 03:30N 40°40' W 074°02'2 3.3
2018-Jun-22 03:00N 40°39' W 074°04'1 1.1
2018-Jun-22 02:22N 40°39' W 074°05'0 0.0
2018-Jun-22 01:58N 40°39' W 074°05'0 0.0
2018-Jun-22 01:28N 40°39' W 074°05'0 0.0
2018-Jun-22 00:58N 40°39' W 074°05'0 0.0
2018-Jun-22 00:28N 40°39' W 074°05'0 0.0
2018-Jun-21 23:58N 40°39' W 074°05'0 0.0
2018-Jun-21 23:28N 40°39' W 074°05'0 0.0
2018-Jun-21 22:58N 40°39' W 074°05'0 0.0
2018-Jun-21 22:28N 40°39' W 074°05'0 0.0
2018-Jun-21 21:58N 40°39' W 074°05'0 0.0
2018-Jun-21 21:28N 40°39' W 074°05'0 0.0
2018-Jun-21 20:58N 40°39' W 074°05'0 0.0
2018-Jun-21 20:28N 40°39' W 074°05'0 0.0
2018-Jun-21 19:58N 40°39' W 074°05'0 0.0
2018-Jun-21 19:28N 40°39' W 074°05'0 0.0
2018-Jun-21 18:58N 40°39' W 074°05'0 0.0
2018-Jun-21 18:28N 40°39' W 074°05'0 0.0
2018-Jun-21 17:58N 40°39' W 074°05'0 0.0
2018-Jun-21 17:28N 40°39' W 074°05'0 0.0
2018-Jun-21 16:58N 40°39' W 074°05'0 0.0
2018-Jun-21 16:28N 40°39' W 074°05'0 0.0
2018-Jun-21 15:58N 40°39' W 074°05'0 0.0
2018-Jun-21 15:28N 40°39' W 074°05'0 0.0
2018-Jun-21 14:55N 40°39' W 074°05'0 0.0
2018-Jun-21 14:31N 40°39' W 074°05'0 0.0
2018-Jun-21 14:01N 40°39' W 074°05'0 0.0
2018-Jun-21 13:31N 40°39' W 074°05'0 0.0
2018-Jun-21 13:00N 40°39' W 074°05'0 0.0
2018-Jun-21 12:30N 40°39' W 074°05'0 0.0
2018-Jun-21 12:00N 40°39' W 074°05'0 0.0
2018-Jun-21 11:30N 40°39' W 074°05'0 0.0
2018-Jun-21 11:00N 40°39' W 074°05'0 0.0
2018-Jun-21 10:30N 40°39' W 074°05'0 0.0
2018-Jun-21 10:00N 40°39' W 074°05'0 0.0
2018-Jun-21 09:30N 40°39' W 074°05'0 0.0
2018-Jun-21 09:00N 40°39' W 074°05'0 0.0
2018-Jun-21 08:30N 40°39' W 074°05'0 0.0
2018-Jun-21 08:00N 40°39' W 074°05'0 0.0
2018-Jun-21 07:30N 40°39' W 074°05'0 0.0
2018-Jun-21 07:00N 40°39' W 074°05'0 0.0
2018-Jun-21 06:30N 40°39' W 074°05'0 0.0
2018-Jun-21 06:00N 40°39' W 074°05'0 0.0
2018-Jun-21 05:30N 40°39' W 074°05'0 0.0
2018-Jun-21 05:00N 40°39' W 074°05'0 0.0
2018-Jun-21 04:30N 40°39' W 074°05'0 0.0
2018-Jun-21 04:00N 40°39' W 074°05'0 0.0
2018-Jun-21 03:30N 40°39' W 074°05'0 0.0
2018-Jun-21 03:00N 40°39' W 074°05'0 0.0
2018-Jun-21 02:30N 40°39' W 074°05'0 0.0
2018-Jun-21 02:00N 40°39' W 074°05'0 0.0
2018-Jun-21 01:30N 40°39' W 074°05'0 0.0
2018-Jun-21 01:00N 40°39' W 074°05'0 0.0
2018-Jun-21 00:30N 40°39' W 074°05'0 0.0
2018-Jun-21 00:00N 40°39' W 074°05'0 0.0
2018-Jun-20 23:30N 40°39' W 074°05'0 0.0
2018-Jun-20 23:00N 40°39' W 074°05'0 0.0
2018-Jun-20 22:30N 40°39' W 074°05'0 0.0
2018-Jun-20 22:00N 40°39' W 074°05'0 0.0
2018-Jun-20 21:30N 40°39' W 074°05'0 0.0
2018-Jun-20 20:57N 40°39' W 074°05'0 0.0
2018-Jun-20 20:30N 40°39' W 074°05'2 4.0
2018-Jun-20 19:57N 40°38' W 074°08'0 0.0
2018-Jun-20 19:30N 40°38' W 074°08'0 0.0
2018-Jun-20 19:00N 40°38' W 074°08'0 0.0
2018-Jun-20 18:30N 40°38' W 074°08'0 0.0
2018-Jun-20 18:00N 40°38' W 074°08'0 0.0
2018-Jun-20 17:30N 40°38' W 074°08'0 0.0
2018-Jun-20 17:00N 40°38' W 074°08'0 0.0
2018-Jun-20 16:27N 40°38' W 074°08'0 0.0
2018-Jun-20 15:54N 40°38' W 074°08'2 5.1
2018-Jun-20 15:29N 40°39' W 074°05'0 0.0
2018-Jun-20 14:59N 40°39' W 074°05'0 0.0
2018-Jun-20 14:29N 40°39' W 074°05'0 0.0
2018-Jun-20 13:59N 40°39' W 074°05'0 0.0
2018-Jun-20 13:29N 40°39' W 074°05'0 0.0
2018-Jun-20 12:58N 40°39' W 074°05'0 0.2
2018-Jun-20 12:30N 40°39' W 074°05'2 4.1
2018-Jun-20 12:00N 40°40' W 074°03'611.1
2018-Jun-20 11:30N 40°45' W 073°58'57 1.3
2018-Jun-18 17:14N 41°12' W 072°53'0 0.1
2018-Jun-18 16:55N 41°12' W 072°53'5610.5
2018-Jun-18 11:37N 40°46' W 073°57'1 9.0
2018-Jun-18 11:30N 40°45' W 073°58'4 7.6
2018-Jun-18 11:00N 40°42' W 074°00'4 8.5
2018-Jun-18 10:30N 40°39' W 074°05'5 9.3
2018-Jun-18 10:00N 40°39' W 074°11'3 6.4
2018-Jun-18 09:30N 40°36' W 074°12'4 2.2
2018-Jun-18 07:41N 40°32' W 074°15'6 0.2
2018-Jun-16 15:55N 40°38' W 074°12'3 6.4
2018-Jun-16 15:30N 40°39' W 074°09'4 8.3
2018-Jun-16 15:00N 40°39' W 074°03'1 1.4
2018-Jun-16 14:28N 40°40' W 074°03'0 0.1
2018-Jun-16 13:58N 40°40' W 074°03'0 0.1
2018-Jun-16 13:28N 40°40' W 074°03'0 0.2
2018-Jun-16 12:58N 40°40' W 074°03'2 5.0
2018-Jun-16 12:30N 40°39' W 074°05'2 3.4
2018-Jun-16 11:59N 40°38' W 074°08'0 0.0
2018-Jun-16 11:29N 40°38' W 074°08'0 0.0
2018-Jun-16 10:59N 40°38' W 074°08'0 0.0
2018-Jun-16 10:29N 40°38' W 074°08'0 0.4
2018-Jun-16 10:00N 40°39' W 074°08'4 7.5
2018-Jun-16 09:30N 40°40' W 074°03'0 0.0
2018-Jun-16 09:00N 40°40' W 074°03'0 0.0
2018-Jun-16 08:30N 40°40' W 074°03'0 0.0
2018-Jun-16 08:00N 40°40' W 074°03'0 0.0
2018-Jun-16 07:30N 40°40' W 074°03'0 0.1
2018-Jun-16 07:00N 40°40' W 074°03'0 0.0
2018-Jun-16 06:30N 40°40' W 074°03'0 0.0
2018-Jun-16 06:00N 40°40' W 074°03'0 0.0
2018-Jun-16 05:30N 40°40' W 074°03'0 0.3
2018-Jun-16 05:00N 40°40' W 074°03'0 0.2
2018-Jun-16 04:31N 40°40' W 074°03'3 6.3
2018-Jun-16 04:01N 40°42' W 073°60'5 9.1
2018-Jun-16 03:28N 40°46' W 073°57'55 1.7
2018-Jun-14 18:27N 41°12' W 072°53'0 0.1
2018-Jun-14 16:00N 41°12' W 072°52'0 0.0
2018-Jun-14 14:03N 41°12' W 072°53'0 0.1
2018-Jun-14 13:57N 41°12' W 072°53'0 0.0
2018-Jun-14 13:27N 41°12' W 072°53'0 0.0
2018-Jun-14 12:57N 41°12' W 072°53'0 0.0
2018-Jun-14 00:03N 41°12' W 072°53'0 0.1
2018-Jun-13 23:57N 41°12' W 072°53'0 0.0
2018-Jun-13 13:03N 41°12' W 072°53'0 0.1
2018-Jun-13 12:58N 41°12' W 072°53'0 0.0
2018-Jun-13 12:24N 41°12' W 072°53'0 0.0
2018-Jun-13 11:59N 41°12' W 072°53'0 0.0
2018-Jun-13 11:29N 41°12' W 072°52'0 0.0
2018-Jun-13 10:59N 41°12' W 072°52'0 0.0
2018-Jun-13 10:30N 41°12' W 072°52'0 0.2
2018-Jun-13 10:00N 41°12' W 072°52'  
Track history (hours):
 
Tides and Currents Weather Stations Pressure Air Temp Water Temp Dewpoint Dewpoint Depression Visibility Wind Speed Wind Dir Waves Ship Positions

Christian Reinauer

Owner: REINAUER TRANSPORTATION CO LLC, STATEN ISLAND, NY. More information available from US FCC via Universal Licensing System and Coast Guard Vessel Documentation Center.

Last reported at 2018-Jun-23 07:24 UTC. Time now 2018-Jun-23 09:47 UTC.
Position N 40°48' W 073°53'.

Length 172 m; draft 8.1 m.

Type: . MMSI: 366832740.

Date/timePositionNaut miles runAvg speedWind from/ knotsBaromVisibWave heightAir tempDewpointWater temp
2018-Jun-23 07:24N 40°48' W 073°53'4 9.9
2018-Jun-23 07:00N 40°46' W 073°57'511.0
2018-Jun-23 06:30N 40°41' W 074°01'4 8.7
2018-Jun-23 06:00N 40°39' W 074°06'4 8.6
2018-Jun-23 05:30N 40°38' W 074°12'6 0.3
2018-Jun-22 12:10N 40°33' W 074°15'2 6.9
2018-Jun-22 11:57N 40°34' W 074°13'4 7.1
2018-Jun-22 11:22N 40°38' W 074°12'3 7.0
2018-Jun-22 10:59N 40°39' W 074°09'3 6.7
2018-Jun-22 10:30N 40°39' W 074°05'2 4.0
2018-Jun-22 10:00N 40°40' W 074°02'0 0.0
2018-Jun-22 09:30N 40°40' W 074°02'0 0.0
2018-Jun-22 09:00N 40°40' W 074°02'0 0.0
2018-Jun-22 08:30N 40°40' W 074°02'0 0.0
2018-Jun-22 08:00N 40°40' W 074°02'0 0.0
2018-Jun-22 07:27N 40°40' W 074°02'0 0.0
2018-Jun-22 07:00N 40°40' W 074°02'0 0.1
2018-Jun-22 06:30N 40°40' W 074°02'0 0.1
2018-Jun-22 06:00N 40°40' W 074°02'0 0.2
2018-Jun-22 05:30N 40°40' W 074°03'0 0.2
2018-Jun-22 05:00N 40°40' W 074°02'0 0.1
2018-Jun-22 04:30N 40°40' W 074°02'0 0.0
2018-Jun-22 04:00N 40°40' W 074°02'0 0.0
2018-Jun-22 03:30N 40°40' W 074°02'2 3.3
2018-Jun-22 03:00N 40°39' W 074°04'1 1.1
2018-Jun-22 02:22N 40°39' W 074°05'0 0.0
2018-Jun-22 01:58N 40°39' W 074°05'0 0.0
2018-Jun-22 01:28N 40°39' W 074°05'0 0.0
2018-Jun-22 00:58N 40°39' W 074°05'0 0.0
2018-Jun-22 00:28N 40°39' W 074°05'0 0.0
2018-Jun-21 23:58N 40°39' W 074°05'0 0.0
2018-Jun-21 23:28N 40°39' W 074°05'0 0.0
2018-Jun-21 22:58N 40°39' W 074°05'0 0.0
2018-Jun-21 22:28N 40°39' W 074°05'0 0.0
2018-Jun-21 21:58N 40°39' W 074°05'0 0.0
2018-Jun-21 21:28N 40°39' W 074°05'0 0.0
2018-Jun-21 20:58N 40°39' W 074°05'0 0.0
2018-Jun-21 20:28N 40°39' W 074°05'0 0.0
2018-Jun-21 19:58N 40°39' W 074°05'0 0.0
2018-Jun-21 19:28N 40°39' W 074°05'0 0.0
2018-Jun-21 18:58N 40°39' W 074°05'0 0.0
2018-Jun-21 18:28N 40°39' W 074°05'0 0.0
2018-Jun-21 17:58N 40°39' W 074°05'0 0.0
2018-Jun-21 17:28N 40°39' W 074°05'0 0.0
2018-Jun-21 16:58N 40°39' W 074°05'0 0.0
2018-Jun-21 16:28N 40°39' W 074°05'0 0.0
2018-Jun-21 15:58N 40°39' W 074°05'0 0.0
2018-Jun-21 15:28N 40°39' W 074°05'0 0.0
2018-Jun-21 14:55N 40°39' W 074°05'0 0.0
2018-Jun-21 14:31N 40°39' W 074°05'0 0.0
2018-Jun-21 14:01N 40°39' W 074°05'0 0.0
2018-Jun-21 13:31N 40°39' W 074°05'0 0.0
2018-Jun-21 13:00N 40°39' W 074°05'0 0.0
2018-Jun-21 12:30N 40°39' W 074°05'0 0.0
2018-Jun-21 12:00N 40°39' W 074°05'0 0.0
2018-Jun-21 11:30N 40°39' W 074°05'0 0.0
2018-Jun-21 11:00N 40°39' W 074°05'0 0.0
2018-Jun-21 10:30N 40°39' W 074°05'0 0.0
2018-Jun-21 10:00N 40°39' W 074°05'0 0.0
2018-Jun-21 09:30N 40°39' W 074°05'0 0.0
2018-Jun-21 09:00N 40°39' W 074°05'0 0.0
2018-Jun-21 08:30N 40°39' W 074°05'0 0.0
2018-Jun-21 08:00N 40°39' W 074°05'0 0.0
2018-Jun-21 07:30N 40°39' W 074°05'0 0.0
2018-Jun-21 07:00N 40°39' W 074°05'0 0.0
2018-Jun-21 06:30N 40°39' W 074°05'0 0.0
2018-Jun-21 06:00N 40°39' W 074°05'0 0.0
2018-Jun-21 05:30N 40°39' W 074°05'0 0.0
2018-Jun-21 05:00N 40°39' W 074°05'0 0.0
2018-Jun-21 04:30N 40°39' W 074°05'0 0.0
2018-Jun-21 04:00N 40°39' W 074°05'0 0.0
2018-Jun-21 03:30N 40°39' W 074°05'0 0.0
2018-Jun-21 03:00N 40°39' W 074°05'0 0.0
2018-Jun-21 02:30N 40°39' W 074°05'0 0.0
2018-Jun-21 02:00N 40°39' W 074°05'0 0.0
2018-Jun-21 01:30N 40°39' W 074°05'0 0.0
2018-Jun-21 01:00N 40°39' W 074°05'0 0.0
2018-Jun-21 00:30N 40°39' W 074°05'0 0.0
2018-Jun-21 00:00N 40°39' W 074°05'0 0.0
2018-Jun-20 23:30N 40°39' W 074°05'0 0.0
2018-Jun-20 23:00N 40°39' W 074°05'0 0.0
2018-Jun-20 22:30N 40°39' W 074°05'0 0.0
2018-Jun-20 22:00N 40°39' W 074°05'0 0.0
2018-Jun-20 21:30N 40°39' W 074°05'0 0.0
2018-Jun-20 20:57N 40°39' W 074°05'0 0.0
2018-Jun-20 20:30N 40°39' W 074°05'2 4.0
2018-Jun-20 19:57N 40°38' W 074°08'0 0.0
2018-Jun-20 19:30N 40°38' W 074°08'0 0.0
2018-Jun-20 19:00N 40°38' W 074°08'0 0.0
2018-Jun-20 18:30N 40°38' W 074°08'0 0.0
2018-Jun-20 18:00N 40°38' W 074°08'0 0.0
2018-Jun-20 17:30N 40°38' W 074°08'0 0.0
2018-Jun-20 17:00N 40°38' W 074°08'0 0.0
2018-Jun-20 16:27N 40°38' W 074°08'0 0.0
2018-Jun-20 15:54N 40°38' W 074°08'2 5.1
2018-Jun-20 15:29N 40°39' W 074°05'0 0.0
2018-Jun-20 14:59N 40°39' W 074°05'0 0.0
2018-Jun-20 14:29N 40°39' W 074°05'0 0.0
2018-Jun-20 13:59N 40°39' W 074°05'0 0.0
2018-Jun-20 13:29N 40°39' W 074°05'0 0.0
2018-Jun-20 12:58N 40°39' W 074°05'0 0.2
2018-Jun-20 12:30N 40°39' W 074°05'2 4.1
2018-Jun-20 12:00N 40°40' W 074°03'611.1
2018-Jun-20 11:30N 40°45' W 073°58'57 1.3
2018-Jun-18 17:14N 41°12' W 072°53'0 0.1
2018-Jun-18 16:55N 41°12' W 072°53'5610.5
2018-Jun-18 11:37N 40°46' W 073°57'1 9.0
2018-Jun-18 11:30N 40°45' W 073°58'4 7.6
2018-Jun-18 11:00N 40°42' W 074°00'4 8.5
2018-Jun-18 10:30N 40°39' W 074°05'5 9.3
2018-Jun-18 10:00N 40°39' W 074°11'3 6.4
2018-Jun-18 09:30N 40°36' W 074°12'4 2.2
2018-Jun-18 07:41N 40°32' W 074°15'6 0.2
2018-Jun-16 15:55N 40°38' W 074°12'3 6.4
2018-Jun-16 15:30N 40°39' W 074°09'4 8.3
2018-Jun-16 15:00N 40°39' W 074°03'1 1.4
2018-Jun-16 14:28N 40°40' W 074°03'0 0.1
2018-Jun-16 13:58N 40°40' W 074°03'0 0.1
2018-Jun-16 13:28N 40°40' W 074°03'0 0.2
2018-Jun-16 12:58N 40°40' W 074°03'2 5.0
2018-Jun-16 12:30N 40°39' W 074°05'2 3.4
2018-Jun-16 11:59N 40°38' W 074°08'0 0.0
2018-Jun-16 11:29N 40°38' W 074°08'0 0.0
2018-Jun-16 10:59N 40°38' W 074°08'0 0.0
2018-Jun-16 10:29N 40°38' W 074°08'0 0.4
2018-Jun-16 10:00N 40°39' W 074°08'4 7.5
2018-Jun-16 09:30N 40°40' W 074°03'0 0.0
2018-Jun-16 09:00N 40°40' W 074°03'0 0.0
2018-Jun-16 08:30N 40°40' W 074°03'0 0.0
2018-Jun-16 08:00N 40°40' W 074°03'0 0.0
2018-Jun-16 07:30N 40°40' W 074°03'0 0.1
2018-Jun-16 07:00N 40°40' W 074°03'0 0.0
2018-Jun-16 06:30N 40°40' W 074°03'0 0.0
2018-Jun-16 06:00N 40°40' W 074°03'0 0.0
2018-Jun-16 05:30N 40°40' W 074°03'0 0.3
2018-Jun-16 05:00N 40°40' W 074°03'0 0.2
2018-Jun-16 04:31N 40°40' W 074°03'3 6.3
2018-Jun-16 04:01N 40°42' W 073°60'5 9.1
2018-Jun-16 03:28N 40°46' W 073°57'55 1.7
2018-Jun-14 18:27N 41°12' W 072°53'0 0.1
2018-Jun-14 16:00N 41°12' W 072°52'0 0.0
2018-Jun-14 14:03N 41°12' W 072°53'0 0.1
2018-Jun-14 13:57N 41°12' W 072°53'0 0.0
2018-Jun-14 13:27N 41°12' W 072°53'0 0.0
2018-Jun-14 12:57N 41°12' W 072°53'0 0.0
2018-Jun-14 00:03N 41°12' W 072°53'0 0.1
2018-Jun-13 23:57N 41°12' W 072°53'0 0.0
2018-Jun-13 13:03N 41°12' W 072°53'0 0.1
2018-Jun-13 12:58N 41°12' W 072°53'0 0.0
2018-Jun-13 12:24N 41°12' W 072°53'0 0.0
2018-Jun-13 11:59N 41°12' W 072°53'0 0.0
2018-Jun-13 11:29N 41°12' W 072°52'0 0.0
2018-Jun-13 10:59N 41°12' W 072°52'0 0.0
2018-Jun-13 10:30N 41°12' W 072°52'0 0.2
2018-Jun-13 10:00N 41°12' W 072°52'  

Dump ship's entire track history